This is the latest recevied weather packets stored in our database for station/object OM4MO-10. If no packets are shown the sender has not sent any weather packets the latest 10 day(s).
| Time | Temp. | Humidity | Pressure | Rain* | Wind** | Luminosity | Snow |
|---|---|---|---|---|---|---|---|
| 1788620321 | 21.67° C | 79% | 1022.2 hPa | - | - | - | - |
| 1788619421 | 22.22° C | 79% | 1022.9 hPa | - | - | - | - |
| 1788618521 | 21.67° C | 79% | 1022.6 hPa | - | - | - | - |
| 1788617621 | 21.67° C | 79% | 1022 hPa | - | - | - | - |
| 1788616720 | 22.22° C | 79% | 1022.9 hPa | - | - | - | - |
| 1788615820 | 22.22° C | 79% | 1023.7 hPa | - | - | - | - |
| 1788614920 | 22.22° C | 79% | 1024.8 hPa | - | - | - | - |
| 1788614020 | 22.78° C | 79% | 1024.4 hPa | - | - | - | - |
| 1788613120 | 22.78° C | 79% | 1025.2 hPa | - | - | - | - |
| 1788612221 | 23.33° C | 79% | 1025.3 hPa | - | - | - | - |
| 1788611320 | 22.78° C | 79% | 1025.7 hPa | - | - | - | - |
| 1788610419 | 23.89° C | 80% | 1021.5 hPa | - | - | - | - |
| 1788609519 | 21.11° C | 79% | 1020.7 hPa | - | - | - | - |
| 1788608619 | 21.67° C | 79% | 1020.7 hPa | - | - | - | - |
| 1788607719 | 21.11° C | 79% | 1020.5 hPa | - | - | - | - |
| 1788606819 | 20.56° C | 79% | 1020.8 hPa | - | - | - | - |
| 1788605919 | 20° C | 79% | 1021.4 hPa | - | - | - | - |
| 1788605019 | 20° C | 79% | 1021.1 hPa | - | - | - | - |
| 1788604119 | 20° C | 79% | 1021.4 hPa | - | - | - | - |
| 1788603218 | 18.89° C | 79% | 1021.2 hPa | - | - | - | - |
| 1788602318 | 18.89° C | 79% | 1021.3 hPa | - | - | - | - |
| 1788601418 | 18.89° C | 79% | 1021.6 hPa | - | - | - | - |
| 1788600518 | 18.33° C | 79% | 1022.3 hPa | - | - | - | - |
| 1788599618 | 17.78° C | 79% | 1021.7 hPa | - | - | - | - |
| 1788598718 | 18.33° C | 79% | 1021.3 hPa | - | - | - | - |
* Rain since midnight (hover to see other rain measurements)
** Current wind speed in m/s (hover to see current wind gust speed)